Flag Weather past 2 weeks in Dieppe, New Brunswick, Canada

Now
32 °F

Sleet. Low clouds.


Feels Like: 19 °F
Forecast: 23 / 33 °F
Wind: 24 mph from Northeast

Location: Moncton

Current Time: Nov 27, 2014 at 4:33:30 AM

Latest Report: Nov 27, 2014 at 4:00 AM


Visibility: 1 mi

Pressure: 29.72 "Hg

Humidity: 93%

Dew point: 30 °F

Location of DieppeLocation

Historic Weather in Dieppe — Graph

°F

Dieppe temperature yesterday

Maximum temperature yesterday: 43 °F (at 12:00 AM)
Minimum temperature yesterday: 32 °F (at 7:00 PM)
Average temperature yesterday: 38 °F

Past Weeks' High & Low Weather Summary

 TemperatureHumidityPressure
High64 °F (Nov 25, 11:00 AM)100% (Nov 12, 3:00 AM)30.31 "Hg (Nov 12, 3:00 AM)
Low14 °F (Nov 22, 5:00 AM)39% (Nov 13, 3:00 PM)29.21 "Hg (Nov 18, 7:00 AM)
Average34 °F76%29.89 "Hg
* Reported Nov 12 3:00 AM — Nov 27 3:00 AM, Dieppe, Weather by CustomWeather, © 2014

Note: Actual official high and low records may vary slightly from our data, if they occured in-between our weather recording intervals... More about our weather records

Advertising

Dieppe weather history for previous 24 hours

 ConditionsComfort  
Time TempWeatherWind HumidityBarometerVisibility
3:00 AM
Nov 27
32 °FSleet. Low clouds.20 mph93%29.81 "Hg1 mi
2:00 AM32 °FLight snow. Low clouds.20 mph93%29.84 "Hg1 mi
1:00 AM32 °FSnow. Dense fog.20 mph93%29.90 "Hg1 mi
12:00 AM32 °FLight snow. Low clouds.21 mph93%29.93 "Hg1 mi
11:00 PM
Nov 26
32 °FChilly.10 mph93%30.02 "Hg1 mi
10:00 PM32 °FLight snow. Low clouds.10 mph93%30.05 "Hg1 mi
9:00 PM32 °FLight snow. Low clouds.8 mph93%30.09 "Hg3 mi
8:00 PM32 °FLight snow. Overcast.6 mph93%30.13 "Hg3 mi
7:00 PM32 °FLight snow. Overcast.2 mph93%30.19 "Hg2 mi
6:00 PM34 °FLight snow. Mostly cloudy.7 mph87%30.19 "Hg8 mi
5:00 PM37 °FOvercast.6 mph65%30.18 "Hg15 mi
4:00 PM39 °FMore clouds than sun.5 mph56%30.20 "Hg15 mi
3:00 PM39 °FOvercast.2 mph56%30.15 "Hg15 mi
2:00 PM39 °FOvercast.5 mph52%30.17 "Hg15 mi
1:00 PM41 °FOvercast.8 mph49%30.17 "Hg15 mi
12:00 PM41 °FOvercast.15 mph53%30.19 "Hg15 mi
11:00 AM43 °FMostly cloudy.15 mph49%30.20 "Hg15 mi
10:00 AM41 °FMostly cloudy.13 mph57%30.17 "Hg15 mi
9:00 AM41 °FOvercast.13 mph57%30.16 "Hg15 mi
8:00 AM39 °FMostly cloudy.9 mph61%30.13 "Hg15 mi
7:00 AM39 °FMostly cloudy.12 mph61%30.09 "Hg15 mi
6:00 AM37 °FPassing clouds.10 mph65%30.06 "Hg15 mi
5:00 AM39 °FClear.10 mph61%30.03 "Hg15 mi
4:00 AM41 °FPassing clouds.14 mph57%30.01 "Hg15 mi
Weather by CustomWeather, © 2014

See weather overviewHow to use our weather pages